Saint Simons Island, GA

9:44 AM EDT on March 25, 2017 (GMT -0400)
McKinnon

Weather History for KSSI - December, 2011

Change the Weather History Date:

Saturday, December 10, 2011

  Actual Average Record
Temperature  
Mean Temperature 55 °F 55 °F  
Max Temperature 58 °F 64 °F 81 °F (1997)
Min Temperature 52 °F 47 °F 27 °F (1968)
Degree Days  
Heating Degree Days 10 10  
Month to date heating degree days 77 93  
Since 1 July heating degree days 223 273  
Cooling Degree Days 0 0  
Month to date cooling degree days 1 9  
Year to date cooling degree days 3026 2624  
Growing Degree Days 4 (Base 50)    
Moisture  
Dew Point 48 °F    
Average Humidity 78    
Maximum Humidity 89    
Minimum Humidity 66    
Precipitation  
Precipitation 0.05 in 0.09 in 1.34 in (1969)
Month to date precipitation 0.09 0.81  
Year to date precipitation 28.02 43.17  
Snow  
Snow 0.00 in - 0.00 in ()
Month to date snowfall 0.0  
Since 1 July snowfall 0.0  
Snow Depth 0.00 in    
Sea Level Pressure  
Sea Level Pressure 30.26 in    
Wind  
Wind Speed 9 mph (North)    
Max Wind Speed 17 mph    
Max Gust Speed 23 mph    
Visibility 10 miles    
Events Rain    
T = Trace of Precipitation, MM = Missing Value Source: NWS Daily Summary

Daily Weather History Graph

Daily Weather History Graph

Search for Another Location

Airport or City:

Trip Planner

Search our weather history database for the weather conditions in past years. The results will help you decide how hot, cold, wet, or windy it might be!

Date:

Astronomy

Dec. 10, 2011 Rise Set
Actual Time 7:13 AM EST 5:23 PM EST
Civil Twilight 6:46 AM EST 5:50 PM EST
Nautical Twilight 6:16 AM EST 6:20 PM EST
Astronomical Twilight 5:46 AM EST 6:49 PM EST
Moon 5:37 PM EST (12/10) 7:10 AM EST (12/10)
Length of Visible Light 11h 03m
Length of Day
10h 10m
Full, 100% of the Moon is Illuminated
Dec 10
Full
Dec 17
Last Quarter
Dec 24
New
Jan 1
First Quarter
Jan 9
Full

Hourly Weather History & Observations

Time (EST) Temp. Dew Point Humidity Pressure Visibility Wind Dir Wind Speed Gust Speed Precip Events Conditions
12:53 AM 57.0 °F 52.0 °F 83% 30.19 in 10.0 mi Calm Calm - N/A   Partly Cloudy
1:53 AM 57.0 °F 52.0 °F 83% 30.18 in 10.0 mi Calm Calm - N/A   Overcast
2:53 AM 57.2 °F 51.8 °F 82% 30.17 in 10.0 mi NNW 3.5 mph - N/A   Overcast
3:53 AM 57.0 °F 50.0 °F 77% 30.18 in 10.0 mi NNW 8.1 mph - N/A   Overcast
4:53 AM 57.0 °F 50.0 °F 77% 30.19 in 10.0 mi NNW 8.1 mph - N/A   Overcast
5:53 AM 55.0 °F 48.9 °F 80% 30.20 in 10.0 mi NNW 11.5 mph 19.6 mph N/A   Overcast
6:03 AM 55.4 °F 48.2 °F 77% 30.21 in 10.0 mi North 10.4 mph - N/A   Overcast
6:32 AM 55.4 °F 48.2 °F 77% 30.20 in 10.0 mi North 9.2 mph - N/A   Overcast
6:45 AM 53.6 °F 48.2 °F 82% 30.22 in 10.0 mi NNW 10.4 mph - 0.00 in Rain Light Rain
6:53 AM 54.0 °F 48.9 °F 83% 30.22 in 10.0 mi NNW 15.0 mph 21.9 mph 0.00 in   Overcast
7:26 AM 51.8 °F 48.2 °F 88% 30.24 in 8.0 mi North 11.5 mph - 0.03 in Rain Light Rain
7:53 AM 52.0 °F 48.9 °F 89% 30.24 in 10.0 mi North 11.5 mph - 0.03 in   Overcast
8:33 AM 53.6 °F 48.2 °F 82% 30.26 in 9.0 mi North 9.2 mph - 0.00 in Rain Light Rain
8:53 AM 52.0 °F 48.9 °F 89% 30.27 in 4.0 mi NNW 4.6 mph - 0.02 in Rain Light Rain
9:23 AM 53.6 °F 50.0 °F 88% 30.27 in 10.0 mi North 9.2 mph - 0.00 in Rain Light Rain
9:53 AM 54.0 °F 51.1 °F 90% 30.28 in 10.0 mi North 8.1 mph - 0.00 in   Mostly Cloudy
10:38 AM 55.4 °F 51.8 °F 88% 30.28 in 10.0 mi North 9.2 mph - N/A   Overcast
10:53 AM 55.9 °F 50.0 °F 80% 30.29 in 10.0 mi North 9.2 mph - N/A   Overcast
11:53 AM 57.0 °F 50.0 °F 77% 30.27 in 10.0 mi North 9.2 mph - N/A   Overcast
12:53 PM 57.0 °F 46.9 °F 69% 30.26 in 10.0 mi NNE 8.1 mph - N/A   Overcast
1:53 PM 55.9 °F 46.9 °F 72% 30.26 in 10.0 mi NNW 5.8 mph - N/A   Overcast
2:53 PM 55.0 °F 46.0 °F 72% 30.26 in 10.0 mi North 10.4 mph - N/A   Overcast
3:51 PM 53.6 °F 46.4 °F 77% 30.27 in 10.0 mi NNW 10.4 mph - 0.00 in   Overcast
3:53 PM 54.0 °F 46.9 °F 77% 30.28 in 10.0 mi North 10.4 mph - 0.00 in   Overcast
4:53 PM 54.0 °F 48.0 °F 80% 30.27 in 10.0 mi NNE 10.4 mph - N/A   Overcast
5:53 PM 53.1 °F 46.9 °F 80% 30.29 in 10.0 mi North 11.5 mph - N/A   Overcast
6:53 PM 53.1 °F 46.9 °F 80% 30.31 in 10.0 mi North 9.2 mph - 0.00 in   Overcast
7:53 PM 55.0 °F 46.0 °F 72% 30.32 in 10.0 mi NNE 12.7 mph - N/A   Overcast
8:53 PM 55.0 °F 45.0 °F 69% 30.32 in 10.0 mi NNE 13.8 mph 23.0 mph N/A   Overcast
9:53 PM 55.9 °F 45.0 °F 67% 30.33 in 10.0 mi NNE 13.8 mph - N/A   Overcast
10:53 PM 55.9 °F 44.1 °F 64% 30.33 in 10.0 mi NE 15.0 mph 20.7 mph N/A   Overcast
11:53 PM 55.9 °F 45.0 °F 67% 30.32 in 10.0 mi NNE 13.8 mph 21.9 mph N/A   Overcast